User: anonymous   Login
Location: Meriden
(44.0740°N, 93.3870°W)
Time: 04:15:40
(UTC-05:00)
Language:

Hamsat - Orbit

View from above orbital plane
View from above orbital plane
View from above satellite
View from above satellite

Ground track
Ground track

The orbit data is extracted from the following two-line orbital elements,

1 28650U 05017B   16125.90112010  .00000887  00000-0  10126-3 0  9999
2 28650  97.6053 109.4732 0024931  45.4661 314.8587 14.88233622595435
Epoch (UTC): 04 May 2016 21:37:36
Eccentricity: 0.0024931
inclination: 97.6053°
perigee height: 586 km
apogee height: 621 km
right ascension of ascending node: 109.4732°
argument of perigee: 45.4661°
revolutions per day: 14.88233622
mean anomaly at epoch: 314.8587°
orbit number at epoch: 59543

The dashed part of the orbit path shows where the satellite is in the earth's shadow,  

DLR